#timestamp,LO_Frequency,Hit 
1501484415.2,286046883.5,N
1501484435.1,286046883.9,N
1501484436.0,286046883.9,N
1501484455.8,286046879.8,N
1501484475.6,286046882.6,N
1501484495.5,286046882.8,N
1501484515.3,286046881.0,N
1501484535.1,286046880.0,N
1501484555.9,286046879.5,N
1501484575.7,286046877.4,N
1501484595.5,286046877.9,N
1501484615.4,286046879.2,N
1501484635.2,286046875.2,N
1501484655.0,286046875.0,N
1501484655.9,286046875.0,N
1501484675.8,286046879.1,N
1501484695.6,286046877.7,N
1501484715.4,286046875.4,N
1501484735.3,286046875.8,N
1501484755.1,286046877.9,N
1501484756.0,286046877.9,N
1501484775.8,286046878.9,N
1501484795.6,286046878.5,N
1501484815.5,286046877.3,N
1501484835.3,286046872.0,N
1501484855.1,286046874.2,N
1501484875.9,286046872.3,N
1501484895.7,286046868.6,N
1501484915.5,286046865.6,N
1501484935.4,286046867.9,N
1501484955.2,286046866.6,N
1501484975.0,286046866.5,N
1501484975.9,286046866.5,N
1501484995.8,286046866.5,N
1501485015.6,286046862.8,N
1501485035.4,286046863.6,N
1501485055.3,286046863.0,N
1501485075.1,286046859.3,N
1501485076.0,286046859.3,N
1501485095.8,286046859.0,N
1501485115.7,286046860.2,N
1501485135.5,286046856.2,N
1501485155.3,286046862.0,N
1501485175.2,286046859.6,N
1501485195.9,286046857.0,N
1501485215.7,286046852.5,N
1501485235.5,286046853.8,N
1501485255.4,286046852.8,N
1501485275.2,286046853.1,N
1501485295.0,286046854.9,N
1501485295.9,286046854.9,N
1501485315.8,286046852.6,N
1501485335.6,286046852.7,N
1501485355.4,286046851.7,N
1501485375.3,286046849.5,N
1501485395.1,286046851.3,N
1501485396.0,286046851.3,N
1501485415.8,286046852.3,N
1501485435.7,286046849.8,N
1501485455.5,286046849.5,N
1501485475.3,286046850.0,N
1501485495.2,286046849.7,N
1501485515.9,286046849.9,N
1501485535.7,286046851.3,N
1501485555.6,286046848.2,N
1501485575.4,286046848.0,N
1501485595.2,286046849.0,N
1501485615.1,286046842.7,N
1501485616.0,286046842.7,N
1501485635.8,286046839.8,N
1501485655.6,286046842.9,N
1501485675.5,286046843.2,N
1501485695.3,286046841.6,N
1501485715.1,286046841.4,N
1501485735.9,286046841.8,N
1501485755.7,286046843.5,N
1501485775.5,286046840.5,N
1501485795.3,286046839.1,N
1501485815.2,286046840.1,N
1501485835.0,286046838.5,N
1501485835.9,286046838.5,N
1501485855.7,286046840.5,N
1501485875.6,286046837.4,N
1501485895.4,286046836.6,N
1501485915.2,286046838.4,N
1501485935.1,286046840.8,N
1501485936.0,286046840.8,N
1501485955.8,286046839.9,N
1501485975.6,286046838.3,N
1501485995.5,286046840.6,N
1501486015.3,286046841.7,N
1501486035.1,286046841.6,N
1501486055.9,286046841.8,N
1501486075.7,286046843.3,N
1501486095.5,286046845.4,N
1501486115.4,286046845.6,N
1501486135.2,286046846.9,N
1501486155.0,286046847.5,N
1501486155.9,286046847.5,N
1501486175.8,286046842.3,N
1501486195.6,286046844.4,N
1501486215.4,286046837.4,N
1501486235.2,286046835.4,N
1501486255.1,286046839.4,N
1501486256.0,286046839.4,N
1501486275.8,286046842.7,N
1501486295.6,286046843.7,N
1501486315.5,286046844.3,N
1501486335.3,286046841.7,N
1501486355.1,286046844.4,N
1501486375.9,286046846.3,N
1501486395.7,286046849.5,N
1501486415.5,286046848.4,N
1501486435.4,286046848.9,N
1501486455.2,286046846.5,N
1501486475.0,286046847.5,N
1501486475.9,286046847.5,N
1501486495.8,286046845.0,N
1501486515.6,286046846.5,N
1501486535.4,286046850.1,N
1501486555.3,286046849.9,N
1501486575.1,286046848.4,N
1501486576.0,286046848.4,N
1501486595.8,286046848.7,N
1501486615.7,286046846.9,N
1501486635.5,286046847.3,N
1501486655.3,286046850.8,N
1501486675.2,286046847.7,N
1501486695.9,286046849.5,N
1501486715.7,286046851.3,N
1501486735.5,286046855.4,N
1501486755.4,286046855.0,N
1501486775.2,286046853.2,N
1501486795.0,286046853.7,N
1501486795.9,286046853.7,N
1501486815.8,286046853.9,N
1501486835.6,286046853.9,N
1501486855.4,286046851.7,N
1501486875.3,286046847.7,N
1501486895.1,286046848.8,N
1501486915.8,286046846.9,N
1501486935.7,286046847.2,N
1501486955.5,286046842.6,N
1501486975.3,286046837.0,N
1501486995.2,286046837.7,N
1501487015.9,286046835.2,N
1501487035.7,286046837.4,N
1501487055.5,286046836.6,N
1501487075.4,286046837.3,N
1501487095.2,286046836.7,N
1501487115.0,286046836.5,N
1501487115.9,286046836.5,N
1501487135.8,286046841.0,N
1501487155.6,286046839.9,N
1501487175.4,286046841.0,N
1501487195.3,286046840.9,N
1501487215.1,286046843.2,N
1501487216.0,286046843.2,N
1501487235.8,286046846.3,N
1501487255.7,286046847.2,N
1501487275.5,286046847.3,N
1501487295.3,286046847.1,N
1501487315.2,286046849.1,N
1501487335.9,286046849.9,N
1501487355.7,286046849.8,N
1501487375.6,286046851.6,N
1501487395.4,286046849.6,N
1501487415.2,286046850.8,N
1501487435.0,286046849.3,N
1501487436.0,286046849.3,N
1501487455.8,286046849.3,N
1501487475.6,286046851.3,N
1501487495.4,286046853.6,N
1501487515.3,286046851.4,N
1501487535.1,286046852.1,N
1501487555.8,286046853.3,N
1501487575.7,286046849.3,N
1501487595.5,286046853.8,N
1501487615.3,286046852.6,N
1501487635.3,286046855.4,N
1501487655.1,286046854.6,N
1501487675.9,286046856.6,N
1501487695.7,286046857.2,N
1501487715.5,286046854.2,N
1501487735.4,286046856.8,N
1501487755.2,286046856.1,N
1501487775.0,286046859.6,N
1501487775.9,286046859.6,N
1501487795.8,286046860.8,N
1501487815.6,286046861.5,N
1501487835.4,286046859.9,N
1501487855.5,286046855.4,N
1501487875.3,286046852.3,N
1501487895.2,286046852.4,N
1501487915.0,286046849.9,N
1501487915.9,286046849.9,N
1501487935.7,286046850.1,N
1501487955.6,286046850.2,N
1501487975.4,286046850.2,N
1501487995.2,286046850.4,N
